Back to catalog

STARLINK-35955

AliveCommunicationsVLEO
NORAD 66635·PAYLOAD·🇺🇸 United States

Launched Nov 23, 2025 from Vandenberg Space Force Base

Loading…

Next Passes (next 24 hours)

TLE

FreshSource: CelesTrak SupGP

Epoch: Sep 14, 2026, 14:22 UTC

1 66635C 25271U   26257.59909722  .00001288  00000+0  38032-4 0  2573
2 66635  53.1594 341.2398 0001131  76.7170  43.5459 15.34404619    17

Track STARLINK-35955 in real time with AllMySat

Download on the App Store